Precipitable_Water
1.47 1.48 1.46 1.42 1.44 1.49 1.44 1.39 1.45 1.45 1.51 1.49 1.46 1.38 1.31 1.25 1.24 1.16 1.14 1.07 1.01 0.97
1.42 1.46 1.41 1.34 1.47 1.54 1.59 1.46 1.56 1.53 1.53 1.54 1.52 1.45 1.38 1.26 1.20 1.20 1.15 1.14 1.13 1.07
1.30 1.34 1.40 1.43 1.42 1.39 1.48 1.55 1.54 1.55 1.49 1.55 1.56 1.51 1.42 1.33 1.33 1.26 1.23 1.23 1.22 1.20
1.11 1.22 1.24 1.30 1.34 1.38 1.38 1.38 1.33 1.37 1.53 1.50 1.50 1.51 1.44 1.39 1.35 1.29 1.25 1.25 1.24 1.25
0.98 1.04 1.08 1.11 1.15 1.24 1.32 1.39 1.40 1.45 1.42 1.43 1.47 1.43 1.44 1.39 1.38 1.30 1.27 1.26 1.25 1.25
0.88 0.93 0.95 0.98 1.07 1.13 1.20 1.26 1.32 1.37 1.31 1.36 1.41 1.44 1.42 1.44 1.38 1.36 1.29 1.24 1.28 1.28
0.84 0.86 0.84 0.83 0.92 0.95 0.99 1.04 1.08 1.16 1.27 1.34 1.38 1.38 1.37 1.32 1.28 1.25 1.20 1.19 1.23 1.24
0.76 0.78 0.77 0.77 0.81 0.85 0.89 0.94 0.97 1.00 1.04 1.16 1.19 1.22 1.23 1.24 1.24 1.23 1.19 1.16 1.13 1.14
0.68 0.67 0.66 0.69 0.71 0.74 0.77 0.79 0.82 0.84 0.85 0.89 0.97 1.05 1.07 1.13 1.18 1.25 1.24 1.15 1.13 1.12
0.60 0.60 0.60 0.63 0.66 0.68 0.70 0.73 0.70 0.67 0.67 0.70 0.81 0.82 0.88 0.95 1.05 1.07 1.08 1.11 1.14 1.13
0.55 0.56 0.59 0.60 0.58 0.59 0.61 0.60 0.59 0.60 0.62 0.62 0.61 0.61 0.65 0.72 0.82 0.89 0.96 0.98 1.02 1.03
0.58 0.57 0.56 0.57 0.60 0.62 0.61 0.62 0.63 0.62 0.63 0.61 0.58 0.57 0.57 0.61 0.64 0.67 0.75 0.81 0.84 0.84
0.54 0.55 0.57 0.60 0.61 0.63 0.66 0.67 0.66 0.63 0.64 0.64 0.62 0.59 0.58 0.61 0.66 0.57 0.62 0.72 0.81 0.82
0.56 0.56 0.58 0.59 0.63 0.65 0.66 0.67 0.67 0.65 0.65 0.64 0.65 0.62 0.60 0.64 0.67 0.63 0.64 0.68 0.70 0.76
Wind_Speed
38 39 40 41 39 38 41 37 36 35 33 32 30 28 27 24 24 25 26 26 26 25
29 37 41 35 36 38 40 42 39 38 37 35 33 31 28 27 25 24 24 25 25 25
30 24 25 31 30 32 39 26 28 35 40 38 38 33 30 28 27 27 26 26 27 26
29 27 26 26 27 26 30 35 33 32 25 26 30 32 31 30 29 29 29 29 30 30
27 27 26 25 25 26 27 28 28 27 29 30 29 25 29 30 31 31 32 32 33 33
27 26 26 26 26 26 27 28 28 29 30 27 29 27 28 29 31 32 33 33 33 33
27 26 26 26 26 26 26 26 27 27 28 30 31 31 32 32 33 34 35 35 36 36
27 27 28 28 28 29 28 28 28 30 30 30 31 33 33 34 35 35 35 36 36 37
29 30 30 31 31 31 31 31 31 31 32 32 33 33 35 37 37 37 36 36 37 38
31 32 32 33 34 33 33 33 33 33 34 35 36 37 37 38 39 39 40 40 39 38
31 32 34 34 35 35 35 35 36 36 36 36 36 37 39 40 41 42 43 43 42 42
26 29 31 32 34 35 36 36 36 35 35 35 36 36 37 38 39 40 40 40 40 41
23 25 28 31 33 34 35 34 33 33 33 34 35 35 35 35 36 37 38 39 39 39
13 17 21 26 30 33 35 35 34 33 32 32 32 32 32 32 33 34 36 37 38 40
Wind_Direction
234 235 236 238 236 233 231 230 229 231 232 232 231 232 235 240 242 243 245 247 250 255
236 235 234 237 234 236 235 233 231 233 235 234 232 231 234 238 241 244 246 249 252 256
241 239 241 242 243 245 237 235 239 238 238 235 233 231 234 238 242 246 250 252 254 259
238 240 243 246 245 245 248 247 255 244 242 235 241 236 237 241 246 249 253 256 256 260
239 241 244 247 249 251 249 251 249 250 245 249 254 245 240 245 249 252 256 258 258 259
239 242 245 248 250 252 251 251 253 252 252 251 252 252 250 250 253 255 258 259 260 261
237 240 244 248 248 251 253 252 254 255 255 253 254 256 257 258 258 259 260 261 262 263
238 243 247 250 250 251 254 255 256 256 256 256 258 258 259 260 260 261 262 263 263 264
244 248 250 251 252 252 254 255 258 259 258 258 259 262 262 261 261 262 262 265 266 265
249 249 251 252 252 254 255 256 258 261 260 261 261 263 264 263 262 262 264 266 267 267
252 253 254 254 254 255 256 258 261 261 263 263 262 266 266 265 264 264 264 265 265 267
260 257 257 257 256 257 258 260 260 260 263 262 264 268 269 268 266 265 266 266 266 267
266 264 262 260 260 259 257 257 257 259 262 264 265 269 270 269 268 267 267 266 267 267
277 276 273 267 261 258 256 255 255 257 261 264 265 268 271 271 269 270 269 268 269 270